Location: Góry Miechowskie
(50.3599°N, 20.1803°E)
Time: 18:43:02
(UTC+00:00)

Meteor 1-11 - Pass Details

Date: 12 September 2024
Orbit: 841 x 884 km, 81.2° (Epoch: 08 October)

Event Time Altitude Azimuth Distance (km) Brightness Sun altitude
Rises 00:04:08 0° 341° (NNW) 3,482 8.0 -32.3°
Reaches altitude 10° 00:06:44 10° 334° (NNW) 2,545 7.1 -32.1°
Enters shadow 00:09:37 26° 312° (NW) 1,666 5.8 -31.9°
